TimeEDT,TemperatureF,Dew PointF,Humidity,Sea Level PressureIn,VisibilityMPH,Wind Direction,Wind SpeedMPH,Gust SpeedMPH,PrecipitationIn,Events,Conditions,WindDirDegrees,DateUTC
12:53 AM,80.1,73.9,81,30.17,10.0,ESE,6.9,-,N/A,,Clear,120,2013-06-25 04:53:00
1:53 AM,79.0,73.0,82,30.15,10.0,SE,6.9,-,N/A,,Clear,140,2013-06-25 05:53:00
2:53 AM,78.1,73.9,87,30.13,10.0,SE,6.9,-,N/A,,Clear,130,2013-06-25 06:53:00
3:53 AM,78.1,73.9,87,30.13,10.0,SE,4.6,-,N/A,,Clear,130,2013-06-25 07:53:00
4:53 AM,77.0,73.9,90,30.12,10.0,ESE,4.6,-,N/A,,Clear,120,2013-06-25 08:53:00
5:53 AM,78.1,73.9,87,30.12,10.0,SE,3.5,-,N/A,,Clear,140,2013-06-25 09:53:00
6:53 AM,77.0,73.9,90,30.13,10.0,Calm,Calm,-,N/A,,Clear,0,2013-06-25 10:53:00
7:53 AM,80.1,75.0,85,30.16,10.0,ESE,3.5,-,N/A,,Clear,110,2013-06-25 11:53:00
8:53 AM,81.0,73.9,79,30.17,10.0,SE,3.5,-,N/A,,Clear,130,2013-06-25 12:53:00
9:53 AM,82.9,73.9,74,30.18,10.0,South,4.6,-,N/A,,Clear,170,2013-06-25 13:53:00
10:53 AM,84.9,73.0,67,30.18,10.0,SSE,3.5,-,N/A,,Clear,160,2013-06-25 14:53:00
11:53 AM,87.1,72.0,61,30.17,10.0,South,5.8,-,N/A,,Clear,170,2013-06-25 15:53:00
12:53 PM,88.0,71.1,57,30.15,10.0,South,6.9,-,N/A,,Clear,180,2013-06-25 16:53:00
1:53 PM,90.0,66.9,46,30.14,10.0,SSE,4.6,-,N/A,,Clear,150,2013-06-25 17:53:00
2:53 PM,90.0,69.1,50,30.12,10.0,South,5.8,-,N/A,,Clear,170,2013-06-25 18:53:00
3:53 PM,91.0,66.9,45,30.09,10.0,Variable,3.5,-,N/A,,Partly Cloudy,0,2013-06-25 19:53:00
4:53 PM,91.0,71.1,52,30.07,10.0,South,4.6,-,N/A,,Partly Cloudy,170,2013-06-25 20:53:00
5:53 PM,88.0,71.1,57,30.06,10.0,ESE,6.9,-,N/A,,Mostly Cloudy,110,2013-06-25 21:53:00
6:53 PM,89.1,71.1,55,30.06,10.0,ESE,11.5,-,N/A,,Partly Cloudy,110,2013-06-25 22:53:00
7:53 PM,86.0,71.1,61,30.09,10.0,ESE,12.7,-,N/A,,Clear,120,2013-06-25 23:53:00
8:53 PM,84.0,69.1,61,30.09,10.0,East,9.2,-,N/A,,Clear,100,2013-06-26 00:53:00
9:53 PM,82.0,70.0,67,30.10,10.0,ESE,9.2,-,N/A,,Clear,110,2013-06-26 01:53:00
10:53 PM,81.0,72.0,74,30.11,10.0,ESE,10.4,-,N/A,,Clear,110,2013-06-26 02:53:00
11:53 PM,81.0,72.0,74,30.10,10.0,SE,9.2,-,N/A,,Clear,130,2013-06-26 03:53:00